Time,TemperatureF,DewpointF,PressureIn,WindDirection,WindDirectionDegrees,WindSpeedMPH,WindSpeedGustMPH,Humidity,HourlyPrecipIn,Conditions,Clouds,dailyrainin,SoftwareType,DateUTC
2013-02-21 00:11:00,21.0,14.0,30.29,East,90,12.0,-999.0,73,-99.99,,,-99.99,,2013-02-21 06:11:00,
2013-02-21 00:21:00,19.0,14.0,30.30,East,100,9.0,-999.0,79,-99.99,,,-99.99,,2013-02-21 06:21:00,
2013-02-21 00:31:00,19.0,14.0,30.30,East,100,7.0,-999.0,79,-99.99,,,-99.99,,2013-02-21 06:31:00,
2013-02-21 00:41:00,19.0,14.0,30.30,East,100,8.0,-999.0,79,-99.99,,,-99.99,,2013-02-21 06:41:00,
2013-02-21 00:51:00,19.0,14.0,30.30,East,100,12.0,-999.0,79,-99.99,,,-99.99,,2013-02-21 06:51:00,
2013-02-21 01:01:00,19.0,14.0,30.30,East,100,12.0,-999.0,79,-99.99,,,-99.99,,2013-02-21 07:01:00,
2013-02-21 01:11:00,19.0,14.0,30.30,East,100,12.0,-999.0,79,-99.99,,,-99.99,,2013-02-21 07:11:00,
2013-02-21 01:21:00,19.0,14.0,30.28,East,80,12.0,-999.0,79,-99.99,,,-99.99,,2013-02-21 07:21:00,
2013-02-21 01:32:00,21.0,14.0,30.28,East,80,12.0,-999.0,73,-99.99,,,-99.99,,2013-02-21 07:32:00,
2013-02-21 01:42:00,21.0,14.0,30.29,East,100,10.0,17.0,73,-99.99,,,-99.99,,2013-02-21 07:42:00,
2013-02-21 01:52:00,21.0,14.0,30.30,East,80,9.0,-999.0,73,-99.99,,,-99.99,,2013-02-21 07:52:00,
2013-02-21 02:01:00,21.0,14.0,30.30,East,80,9.0,-999.0,73,-99.99,,,-99.99,,2013-02-21 08:01:00,
2013-02-21 02:11:00,21.0,14.0,30.30,East,80,9.0,-999.0,73,-99.99,,,-99.99,,2013-02-21 08:11:00,
2013-02-21 02:21:00,21.0,14.0,30.28,East,90,9.0,-999.0,73,-99.99,,,-99.99,,2013-02-21 08:21:00,
2013-02-21 02:32:00,21.0,14.0,30.27,East,80,13.0,-999.0,73,-99.99,,,-99.99,,2013-02-21 08:32:00,
2013-02-21 02:42:00,21.0,14.0,30.27,East,90,12.0,-999.0,73,-99.99,,,-99.99,,2013-02-21 08:42:00,
2013-02-21 02:52:00,21.0,14.0,30.28,East,90,10.0,-999.0,73,-99.99,,,-99.99,,2013-02-21 08:52:00,
2013-02-21 03:01:00,21.0,14.0,30.28,East,90,10.0,-999.0,73,-99.99,,,-99.99,,2013-02-21 09:01:00,
2013-02-21 03:11:00,21.0,14.0,30.28,East,90,10.0,-999.0,73,-99.99,,,-99.99,,2013-02-21 09:11:00,
2013-02-21 03:22:00,21.0,14.0,30.25,East,90,13.0,-999.0,73,-99.99,,,-99.99,,2013-02-21 09:22:00,
2013-02-21 03:31:00,21.0,14.0,30.24,East,90,15.0,18.0,73,-99.99,,,-99.99,,2013-02-21 09:31:00,
2013-02-21 03:42:00,21.0,14.0,30.22,East,90,16.0,22.0,73,-99.99,,,-99.99,,2013-02-21 09:42:00,
2013-02-21 03:52:00,21.0,14.0,30.22,East,100,14.0,-999.0,73,-99.99,,,-99.99,,2013-02-21 09:52:00,
2013-02-21 04:01:00,21.0,14.0,30.22,East,100,14.0,-999.0,73,-99.99,,,-99.99,,2013-02-21 10:01:00,
2013-02-21 04:11:00,21.0,14.0,30.22,East,100,14.0,-999.0,73,-99.99,,,-99.99,,2013-02-21 10:11:00,
2013-02-21 04:21:00,21.0,14.0,30.18,East,90,16.0,23.0,73,-99.99,,,-99.99,,2013-02-21 10:21:00,
2013-02-21 04:31:00,21.0,16.0,30.19,East,90,16.0,-999.0,79,-99.99,,,-99.99,,2013-02-21 10:31:00,
2013-02-21 04:41:00,21.0,16.0,30.20,East,90,14.0,-999.0,79,-99.99,,,-99.99,,2013-02-21 10:41:00,
2013-02-21 04:51:00,21.0,16.0,30.21,East,80,8.0,-999.0,79,-99.99,,,-99.99,,2013-02-21 10:51:00,
2013-02-21 05:01:00,21.0,16.0,30.21,East,80,8.0,-999.0,79,-99.99,,,-99.99,,2013-02-21 11:01:00,
2013-02-21 05:11:00,21.0,16.0,30.21,East,80,8.0,-999.0,79,-99.99,,,-99.99,,2013-02-21 11:11:00,
2013-02-21 05:21:00,21.0,16.0,30.22,East,80,12.0,-999.0,79,-99.99,,,-99.99,,2013-02-21 11:21:00,
2013-02-21 05:31:00,21.0,16.0,30.21,East,90,13.0,-999.0,79,-99.99,,,-99.99,,2013-02-21 11:31:00,
2013-02-21 05:41:00,21.0,16.0,30.21,East,80,13.0,-999.0,79,-99.99,,,-99.99,,2013-02-21 11:41:00,
2013-02-21 05:52:00,21.0,16.0,30.19,East,80,13.0,18.0,79,-99.99,,,-99.99,,2013-02-21 11:52:00,
2013-02-21 06:01:00,21.0,16.0,30.19,East,80,13.0,18.0,79,-99.99,,,-99.99,,2013-02-21 12:01:00,
2013-02-21 06:11:00,21.0,16.0,30.19,East,80,13.0,18.0,79,-99.99,,,-99.99,,2013-02-21 12:11:00,
2013-02-21 06:21:00,21.0,16.0,30.19,East,90,14.0,-999.0,79,-99.99,,,-99.99,,2013-02-21 12:21:00,
2013-02-21 06:32:00,21.0,16.0,30.19,East,90,13.0,18.0,79,-99.99,,,-99.99,,2013-02-21 12:32:00,
2013-02-21 06:43:00,21.0,16.0,30.20,East,80,13.0,18.0,79,-99.99,,,-99.99,,2013-02-21 12:43:00,
2013-02-21 06:53:00,21.0,16.0,30.19,East,80,12.0,18.0,79,-99.99,,,-99.99,,2013-02-21 12:53:00,
2013-02-21 07:01:00,21.0,16.0,30.19,East,80,12.0,18.0,79,-99.99,,,-99.99,,2013-02-21 13:01:00,
2013-02-21 07:12:00,21.0,16.0,30.19,East,80,12.0,18.0,79,-99.99,,,-99.99,,2013-02-21 13:12:00,
2013-02-21 07:22:00,21.0,16.0,30.17,East,80,14.0,-999.0,79,-99.99,,,-99.99,,2013-02-21 13:22:00,
2013-02-21 07:32:00,21.0,18.0,30.21,East,100,13.0,-999.0,85,-99.99,,,-99.99,,2013-02-21 13:32:00,
2013-02-21 07:42:00,21.0,18.0,30.20,East,90,15.0,22.0,85,-99.99,,,-99.99,,2013-02-21 13:42:00,
2013-02-21 07:52:00,21.0,18.0,30.18,East,80,17.0,23.0,85,-99.99,,,-99.99,,2013-02-21 13:52:00,
2013-02-21 08:02:00,21.0,18.0,30.18,East,80,17.0,23.0,85,-99.99,,,-99.99,,2013-02-21 14:02:00,
2013-02-21 08:11:00,21.0,18.0,30.18,East,80,17.0,23.0,85,-99.99,,,-99.99,,2013-02-21 14:11:00,
2013-02-21 08:21:00,21.0,18.0,30.17,East,90,16.0,24.0,85,-99.99,,,-99.99,,2013-02-21 14:21:00,
2013-02-21 08:32:00,21.0,18.0,30.17,East,90,21.0,28.0,85,-99.99,,,-99.99,,2013-02-21 14:32:00,
2013-02-21 08:42:00,21.0,18.0,30.16,East,90,22.0,28.0,85,-99.99,,,-99.99,,2013-02-21 14:42:00,
2013-02-21 08:52:00,21.0,18.0,30.15,East,90,16.0,-999.0,85,-99.99,,,-99.99,,2013-02-21 14:52:00,
2013-02-21 09:01:00,21.0,18.0,30.15,East,90,16.0,-999.0,85,-99.99,,,-99.99,,2013-02-21 15:01:00,
2013-02-21 09:12:00,21.0,18.0,30.15,East,90,16.0,-999.0,85,-99.99,,,-99.99,,2013-02-21 15:12:00,
2013-02-21 09:21:00,21.0,18.0,30.15,East,100,14.0,18.0,85,-99.99,,,-99.99,,2013-02-21 15:21:00,
2013-02-21 09:32:00,23.0,18.0,30.16,East,100,15.0,24.0,79,-99.99,,,-99.99,,2013-02-21 15:32:00,
2013-02-21 09:42:00,23.0,18.0,30.14,East,100,18.0,24.0,79,-99.99,,,-99.99,,2013-02-21 15:42:00,
2013-02-21 09:52:00,21.0,18.0,30.12,East,90,18.0,24.0,85,-99.99,,,-99.99,,2013-02-21 15:52:00,
2013-02-21 10:01:00,21.0,18.0,30.12,East,90,18.0,24.0,85,-99.99,,,-99.99,,2013-02-21 16:01:00,
2013-02-21 10:12:00,21.0,18.0,30.12,East,90,18.0,24.0,85,-99.99,,,-99.99,,2013-02-21 16:12:00,
2013-02-21 10:21:00,19.0,19.0,30.08,ENE,70,14.0,23.0,100,-99.99,,,-99.99,,2013-02-21 16:21:00,
2013-02-21 10:32:00,21.0,21.0,30.13,ENE,60,10.0,-999.0,100,-99.99,,,-99.99,,2013-02-21 16:32:00,
2013-02-21 10:42:00,21.0,21.0,30.13,NE,50,12.0,-999.0,100,-99.99,,,-99.99,,2013-02-21 16:42:00,
2013-02-21 10:52:00,19.0,19.0,30.15,ENE,60,8.0,-999.0,100,-99.99,,,-99.99,,2013-02-21 16:52:00,
2013-02-21 11:01:00,19.0,19.0,30.15,ENE,60,8.0,-999.0,100,-99.99,,,-99.99,,2013-02-21 17:01:00,
2013-02-21 11:11:00,19.0,19.0,30.15,ENE,60,8.0,-999.0,100,-99.99,,,-99.99,,2013-02-21 17:11:00,
2013-02-21 11:21:00,19.0,19.0,30.15,ENE,70,10.0,-999.0,100,-99.99,,,-99.99,,2013-02-21 17:21:00,
2013-02-21 11:32:00,19.0,19.0,30.12,ENE,60,12.0,16.0,100,-99.99,,,-99.99,,2013-02-21 17:32:00,
2013-02-21 11:42:00,19.0,19.0,30.10,ENE,60,13.0,-999.0,100,-99.99,,,-99.99,,2013-02-21 17:42:00,
2013-02-21 11:52:00,19.0,19.0,30.08,ENE,60,16.0,-999.0,100,-99.99,,,-99.99,,2013-02-21 17:52:00,
2013-02-21 12:02:00,19.0,19.0,30.08,ENE,60,16.0,-999.0,100,-99.99,,,-99.99,,2013-02-21 18:02:00,
2013-02-21 12:11:00,19.0,19.0,30.08,ENE,60,16.0,-999.0,100,-99.99,,,-99.99,,2013-02-21 18:11:00,
2013-02-21 12:22:00,19.0,19.0,30.11,East,80,15.0,21.0,100,-99.99,,,-99.99,,2013-02-21 18:22:00,
2013-02-21 12:31:00,19.0,19.0,30.11,East,80,14.0,18.0,100,-99.99,,,-99.99,,2013-02-21 18:31:00,
2013-02-21 12:42:00,19.0,19.0,30.08,East,80,13.0,20.0,100,-99.99,,,-99.99,,2013-02-21 18:42:00,
2013-02-21 12:52:00,19.0,19.0,30.08,East,80,13.0,20.0,100,-99.99,,,-99.99,,2013-02-21 18:52:00,
2013-02-21 13:01:00,19.0,19.0,30.08,East,80,13.0,20.0,100,-99.99,,,-99.99,,2013-02-21 19:01:00,
2013-02-21 13:11:00,19.0,19.0,30.08,East,80,13.0,20.0,100,-99.99,,,-99.99,,2013-02-21 19:11:00,
2013-02-21 13:21:00,19.0,19.0,30.03,East,80,17.0,22.0,100,-99.99,,,-99.99,,2013-02-21 19:21:00,
2013-02-21 13:31:00,21.0,21.0,30.03,East,80,17.0,24.0,100,-99.99,,,-99.99,,2013-02-21 19:31:00,
2013-02-21 13:42:00,21.0,21.0,30.02,East,80,16.0,25.0,100,-99.99,,,-99.99,,2013-02-21 19:42:00,
2013-02-21 13:52:00,21.0,21.0,30.00,East,80,18.0,25.0,100,-99.99,,,-99.99,,2013-02-21 19:52:00,
2013-02-21 14:01:00,21.0,21.0,30.00,East,80,18.0,25.0,100,-99.99,,,-99.99,,2013-02-21 20:01:00,
2013-02-21 14:11:00,21.0,21.0,30.00,East,80,18.0,25.0,100,-99.99,,,-99.99,,2013-02-21 20:11:00,
2013-02-21 14:21:00,21.0,19.0,29.96,ENE,70,20.0,25.0,92,-99.99,,,-99.99,,2013-02-21 20:21:00,
2013-02-21 14:32:00,21.0,19.0,29.96,East,90,18.0,24.0,92,-99.99,,,-99.99,,2013-02-21 20:32:00,
2013-02-21 14:42:00,21.0,19.0,29.97,East,90,20.0,24.0,92,-99.99,,,-99.99,,2013-02-21 20:42:00,
2013-02-21 14:53:00,21.0,19.0,29.95,East,90,20.0,24.0,92,-99.99,,,-99.99,,2013-02-21 20:53:00,
2013-02-21 15:02:00,21.0,19.0,29.95,East,90,20.0,24.0,92,-99.99,,,-99.99,,2013-02-21 21:02:00,
2013-02-21 15:11:00,21.0,19.0,29.95,East,90,20.0,24.0,92,-99.99,,,-99.99,,2013-02-21 21:11:00,
2013-02-21 15:21:00,21.0,21.0,29.93,East,90,21.0,25.0,100,-99.99,,,-99.99,,2013-02-21 21:21:00,
2013-02-21 15:31:00,21.0,21.0,29.94,East,90,16.0,22.0,100,-99.99,,,-99.99,,2013-02-21 21:31:00,
2013-02-21 15:42:00,21.0,21.0,29.93,East,100,20.0,-999.0,100,-99.99,,,-99.99,,2013-02-21 21:42:00,
2013-02-21 15:52:00,23.0,21.0,29.92,East,90,17.0,23.0,92,-99.99,,,-99.99,,2013-02-21 21:52:00,
2013-02-21 16:01:00,23.0,21.0,29.92,East,90,17.0,23.0,92,-99.99,,,-99.99,,2013-02-21 22:01:00,
2013-02-21 16:11:00,23.0,21.0,29.92,East,90,17.0,23.0,92,-99.99,,,-99.99,,2013-02-21 22:11:00,
2013-02-21 16:21:00,23.0,23.0,29.89,East,80,17.0,25.0,100,-99.99,,,-99.99,,2013-02-21 22:21:00,
2013-02-21 16:31:00,23.0,23.0,29.87,East,80,17.0,24.0,100,-99.99,,,-99.99,,2013-02-21 22:31:00,
2013-02-21 16:42:00,23.0,23.0,29.86,East,80,17.0,25.0,100,-99.99,,,-99.99,,2013-02-21 22:42:00,
2013-02-21 16:52:00,23.0,23.0,29.86,ENE,70,16.0,24.0,100,-99.99,,,-99.99,,2013-02-21 22:52:00,
2013-02-21 17:01:00,23.0,23.0,29.86,ENE,70,16.0,24.0,100,-99.99,,,-99.99,,2013-02-21 23:01:00,
2013-02-21 17:11:00,23.0,23.0,29.86,ENE,70,16.0,24.0,100,-99.99,,,-99.99,,2013-02-21 23:11:00,
2013-02-21 17:21:00,23.0,23.0,29.88,ENE,70,10.0,-999.0,100,-99.99,,,-99.99,,2013-02-21 23:21:00,
2013-02-21 17:31:00,23.0,23.0,29.86,ENE,70,14.0,18.0,100,-99.99,,,-99.99,,2013-02-21 23:31:00,
2013-02-21 17:42:00,23.0,23.0,29.85,East,80,14.0,-999.0,100,-99.99,,,-99.99,,2013-02-21 23:42:00,
2013-02-21 17:52:00,23.0,23.0,29.85,East,90,15.0,-999.0,100,-99.99,,,-99.99,,2013-02-21 23:52:00,
2013-02-21 18:01:00,23.0,23.0,29.85,East,90,15.0,-999.0,100,-99.99,,,-99.99,,2013-02-22 00:01:00,
2013-02-21 18:11:00,23.0,23.0,29.85,East,90,15.0,-999.0,100,-99.99,,,-99.99,,2013-02-22 00:11:00,
2013-02-21 18:21:00,23.0,23.0,29.83,East,100,17.0,22.0,100,-99.99,,,-99.99,,2013-02-22 00:21:00,
2013-02-21 18:32:00,25.0,25.0,29.83,East,100,16.0,22.0,100,-99.99,,,-99.99,,2013-02-22 00:32:00,
2013-02-21 18:42:00,25.0,25.0,29.84,East,100,13.0,-999.0,100,-99.99,,,-99.99,,2013-02-22 00:42:00,
2013-02-21 18:52:00,25.0,25.0,29.84,East,100,12.0,-999.0,100,-99.99,,,-99.99,,2013-02-22 00:52:00,
2013-02-21 19:01:00,25.0,25.0,29.84,East,100,12.0,-999.0,100,-99.99,,,-99.99,,2013-02-22 01:01:00,
2013-02-21 19:11:00,25.0,25.0,29.84,East,100,12.0,-999.0,100,-99.99,,,-99.99,,2013-02-22 01:11:00,
2013-02-21 19:21:00,25.0,25.0,29.83,East,100,12.0,-999.0,100,-99.99,,,-99.99,,2013-02-22 01:21:00,
2013-02-21 19:32:00,25.0,25.0,29.83,East,100,12.0,-999.0,100,-99.99,,,-99.99,,2013-02-22 01:32:00,
2013-02-21 19:42:00,25.0,25.0,29.83,East,100,13.0,-999.0,100,-99.99,,,-99.99,,2013-02-22 01:42:00,
2013-02-21 19:52:00,25.0,25.0,29.84,ESE,110,8.0,-999.0,100,-99.99,,,-99.99,,2013-02-22 01:52:00,
2013-02-21 20:02:00,25.0,25.0,29.84,ESE,110,8.0,-999.0,100,-99.99,,,-99.99,,2013-02-22 02:02:00,
2013-02-21 20:11:00,25.0,25.0,29.84,ESE,110,8.0,-999.0,100,-99.99,,,-99.99,,2013-02-22 02:11:00,
2013-02-21 20:21:00,27.0,27.0,29.84,ESE,120,12.0,17.0,100,-99.99,,,-99.99,,2013-02-22 02:21:00,
2013-02-21 20:31:00,27.0,27.0,29.84,SE,130,9.0,-999.0,100,-99.99,,,-99.99,,2013-02-22 02:31:00,
2013-02-21 20:42:00,27.0,27.0,29.83,ESE,120,9.0,-999.0,100,-99.99,,,-99.99,,2013-02-22 02:42:00,
2013-02-21 20:52:00,27.0,27.0,29.83,ESE,120,10.0,-999.0,100,-99.99,,,-99.99,,2013-02-22 02:52:00,
2013-02-21 21:01:00,27.0,27.0,29.83,ESE,120,10.0,-999.0,100,-99.99,,,-99.99,,2013-02-22 03:01:00,
2013-02-21 21:11:00,27.0,27.0,29.83,ESE,120,10.0,-999.0,100,-99.99,,,-99.99,,2013-02-22 03:11:00,
2013-02-21 21:21:00,27.0,27.0,29.81,ESE,120,8.0,-999.0,100,-99.99,,,-99.99,,2013-02-22 03:21:00,
2013-02-21 21:32:00,27.0,27.0,29.82,SE,130,9.0,16.0,100,-99.99,,,-99.99,,2013-02-22 03:32:00,
2013-02-21 21:42:00,27.0,27.0,29.82,SE,130,9.0,-999.0,100,-99.99,,,-99.99,,2013-02-22 03:42:00,
2013-02-21 21:52:00,27.0,27.0,29.82,SE,130,8.0,-999.0,100,-99.99,,,-99.99,,2013-02-22 03:52:00,
2013-02-21 22:01:00,27.0,27.0,29.82,SE,130,8.0,-999.0,100,-99.99,,,-99.99,,2013-02-22 04:01:00,
2013-02-21 22:11:00,27.0,27.0,29.82,SE,130,8.0,-999.0,100,-99.99,,,-99.99,,2013-02-22 04:11:00,
2013-02-21 22:21:00,27.0,27.0,29.81,SE,130,6.0,-999.0,100,-99.99,,,-99.99,,2013-02-22 04:21:00,
2013-02-21 22:32:00,27.0,27.0,29.81,SE,130,7.0,-999.0,100,-99.99,,,-99.99,,2013-02-22 04:32:00,
2013-02-21 22:42:00,27.0,27.0,29.82,SE,130,6.0,-999.0,100,-99.99,,,-99.99,,2013-02-22 04:42:00,
2013-02-21 22:52:00,27.0,27.0,29.81,SE,130,6.0,-999.0,100,-99.99,,,-99.99,,2013-02-22 04:52:00,
2013-02-21 23:01:00,27.0,27.0,29.81,SE,130,6.0,-999.0,100,-99.99,,,-99.99,,2013-02-22 05:01:00,
2013-02-21 23:12:00,27.0,27.0,29.81,SE,130,6.0,-999.0,100,-99.99,,,-99.99,,2013-02-22 05:12:00,
2013-02-21 23:22:00,27.0,27.0,29.81,ESE,120,5.0,-999.0,100,-99.99,,,-99.99,,2013-02-22 05:22:00,
2013-02-21 23:32:00,27.0,27.0,29.81,SE,130,5.0,-999.0,100,-99.99,,,-99.99,,2013-02-22 05:32:00,
2013-02-21 23:42:00,27.0,27.0,29.81,SE,130,5.0,-999.0,100,-99.99,,,-99.99,,2013-02-22 05:42:00,
2013-02-21 23:52:00,27.0,27.0,29.81,ESE,120,5.0,-999.0,100,-99.99,,,-99.99,,2013-02-22 05:52:00,